Weather History for KVTP - July, 2014

Change the Weather History Date:

Wednesday, July 16, 2014

  Actual Average (KTAD) Record (KTAD)
Temperature  
Mean Temperature 54 °F 74 °F  
Max Temperature 64 °F 89 °F 99 °F (1982)
Min Temperature 44 °F 59 °F 51 °F (2014)
Degree Days  
Heating Degree Days 11 0  
Month to date heating degree days 0  
Since 1 June heating degree days 39  
Since 1 July heating degree days 0  
Cooling Degree Days 0 9  
Month to date cooling degree days 138  
Year to date cooling degree days 307  
Since 1 June cooling degree days 279  
Growing Degree Days 4 (Base 50)    
Moisture  
Dew Point 44 °F    
Average Humidity 79    
Maximum Humidity 100    
Minimum Humidity 39    
Precipitation  
Precipitation 0.00 in 0.08 in 1.40 in (1998)
Month to date precipitation 1.03  
Year to date precipitation 6.96  
Sea Level Pressure  
Sea Level Pressure 30.38 in    
Wind  
Wind Speed 12 mph (SW)    
Max Wind Speed 18 mph    
Max Gust Speed 34 mph    
Visibility 7 miles    
Events Fog , Rain , Thunderstorm    
T = Trace of Precipitation, MM = Missing Value Source: NWS Daily Summary

Daily Weather History Graph

Daily Weather History Graph

Search for Another Location

Airport or City:

Trip Planner

Search our weather history database for the weather conditions in past years. The results will help you decide how hot, cold, wet, or windy it might be!

Date:

Astronomy

Jul. 16, 2014 Rise Set
Actual Time 5:52 AM MDT 8:20 PM MDT
Civil Twilight 5:22 AM MDT 8:51 PM MDT
Nautical Twilight 4:44 AM MDT 9:28 PM MDT
Astronomical Twilight 4:03 AM MDT 10:09 PM MDT
Moon 11:14 PM MDT (7/16) 10:52 AM MDT (7/16)
Length of Visible Light 15h 28m
Length of Day
14h 28m
Waning Gibbous, 75% of the Moon is Illuminated
Jul 16
Waning Gibbous
Jul 18
Last Quarter
Jul 26
New
Aug 3
First Quarter
Aug 10
Full

Hourly Weather History & Observations

Time (MDT) Temp. Windchill Dew Point Humidity Pressure Visibility Wind Dir Wind Speed Gust Speed Precip Events Conditions
12:04 AM 44.6 °F 38.8 °F 42.8 °F 93% 30.44 in 10.0 mi SW 11.5 mph 21.9 mph N/A   Clear
12:31 AM 46.4 °F 39.8 °F 41.0 °F 81% 30.43 in 10.0 mi SW 16.1 mph 25.3 mph N/A   Clear
12:45 AM 46.4 °F 39.8 °F 41.0 °F 81% 30.43 in 10.0 mi SW 16.1 mph 25.3 mph N/A   Clear
1:12 AM 46.4 °F 40.4 °F 42.8 °F 87% 30.42 in 10.0 mi SW 13.8 mph 34.5 mph N/A   Clear
1:31 AM 44.6 °F 38.4 °F 42.8 °F 93% 30.42 in 10.0 mi SW 12.7 mph 31.1 mph N/A   Scattered Clouds
1:53 AM 44.6 °F 38.4 °F 44.6 °F 100% 30.42 in 2.0 mi WSW 12.7 mph 32.2 mph N/A   Overcast
2:11 AM 44.6 °F 37.4 °F 44.6 °F 100% 30.41 in 4.0 mi SW 16.1 mph 27.6 mph N/A   Overcast
2:26 AM 44.6 °F 36.9 °F 44.6 °F 100% 30.41 in 1.8 mi WSW 18.4 mph 27.6 mph N/A   Overcast
2:52 AM 44.6 °F 38.8 °F 44.6 °F 100% 30.41 in 10.0 mi SW 11.5 mph 25.3 mph N/A   Mostly Cloudy
3:06 AM 44.6 °F 37.2 °F 44.6 °F 100% 30.40 in 10.0 mi SW 17.3 mph 26.5 mph N/A   Scattered Clouds
3:29 AM 44.6 °F 38.1 °F 42.8 °F 93% 30.39 in 10.0 mi SW 13.8 mph 27.6 mph N/A   Clear
3:51 AM 44.6 °F 37.4 °F 42.8 °F 93% 30.38 in 10.0 mi SW 16.1 mph 25.3 mph N/A   Clear
4:11 AM 44.6 °F 37.8 °F 41.0 °F 87% 30.38 in 10.0 mi SW 15.0 mph 29.9 mph N/A   Clear
4:32 AM 44.6 °F 37.2 °F 41.0 °F 87% 30.37 in 10.0 mi SW 17.3 mph 26.5 mph N/A   Clear
4:53 AM 44.6 °F 38.8 °F 41.0 °F 87% 30.38 in 10.0 mi SW 11.5 mph 21.9 mph N/A   Scattered Clouds
5:06 AM 44.6 °F 39.7 °F 41.0 °F 87% 30.37 in 10.0 mi SW 9.2 mph 19.6 mph N/A   Mostly Cloudy
5:28 AM 44.6 °F 39.2 °F 41.0 °F 87% 30.38 in 10.0 mi West 10.4 mph 23.0 mph N/A Thunderstorm Mostly Cloudy
5:51 AM 44.6 °F 40.2 °F 42.8 °F 93% 30.38 in 10.0 mi WSW 8.1 mph - N/A   Scattered Clouds
6:13 AM 44.6 °F 39.2 °F 42.8 °F 93% 30.37 in 4.0 mi WSW 10.4 mph 18.4 mph N/A   Mostly Cloudy
6:33 AM 44.6 °F 39.7 °F 42.8 °F 93% 30.37 in 0.8 mi WSW 9.2 mph 21.9 mph N/A   Overcast
6:51 AM 44.6 °F 39.2 °F 42.8 °F 93% 30.38 in 0.5 mi WSW 10.4 mph 20.7 mph N/A Fog Fog
7:13 AM 44.6 °F 39.7 °F 42.8 °F 93% 30.38 in 1.2 mi West 9.2 mph 19.6 mph N/A   Overcast
7:25 AM 44.6 °F 40.2 °F 42.8 °F 93% 30.38 in 0.5 mi WSW 8.1 mph 21.9 mph N/A Fog Fog
7:49 AM 44.6 °F 40.2 °F 42.8 °F 93% 30.39 in 1.2 mi WSW 8.1 mph 17.3 mph N/A   Overcast
8:12 AM 44.6 °F 39.7 °F 44.6 °F 100% 30.41 in 0.2 mi SW 9.2 mph - N/A Fog Fog
8:19 AM 44.6 °F 40.2 °F 44.6 °F 100% 30.41 in 0.2 mi WSW 8.1 mph - N/A Fog Fog
8:50 AM 46.4 °F 41.5 °F 44.6 °F 93% 30.41 in 3.0 mi SW 10.4 mph 17.3 mph N/A   Mostly Cloudy
9:06 AM 46.4 °F 42.9 °F 44.6 °F 93% 30.41 in 7.0 mi WSW 6.9 mph - N/A   Mostly Cloudy
9:33 AM 53.6 °F - 48.2 °F 82% 30.40 in 10.0 mi WSW 5.8 mph - N/A   Scattered Clouds
9:52 AM 53.6 °F - 48.2 °F 82% 30.40 in 10.0 mi WSW 6.9 mph - N/A   Clear
10:09 AM 53.6 °F - 48.2 °F 82% 30.40 in 10.0 mi SW 6.9 mph - N/A   Clear
10:25 AM 53.6 °F - 48.2 °F 82% 30.40 in 10.0 mi WSW 6.9 mph - N/A   Clear
10:49 AM 57.2 °F - 48.2 °F 72% 30.40 in 10.0 mi WSW 6.9 mph 16.1 mph N/A   Clear
11:13 AM 59.0 °F - 48.2 °F 67% 30.40 in 10.0 mi SW 9.2 mph - N/A   Clear
11:31 AM 59.0 °F - 46.4 °F 63% 30.41 in 10.0 mi WSW 6.9 mph - N/A   Clear
11:50 AM 59.0 °F - 46.4 °F 63% 30.41 in 10.0 mi WSW 6.9 mph - N/A   Clear
12:13 PM 57.2 °F - 46.4 °F 67% 30.41 in 10.0 mi SW 8.1 mph - N/A Thunderstorm Clear
12:32 PM 57.2 °F - 44.6 °F 63% 30.40 in 10.0 mi SW 9.2 mph 19.6 mph N/A Thunderstorm Clear
12:53 PM 55.4 °F - 44.6 °F 67% 30.41 in 10.0 mi SW 10.4 mph 20.7 mph N/A   Scattered Clouds
1:12 PM 53.6 °F - 46.4 °F 77% 30.40 in 10.0 mi SW 11.5 mph 23.0 mph N/A   Scattered Clouds
1:29 PM 53.6 °F - 44.6 °F 72% 30.40 in 10.0 mi WSW 10.4 mph 17.3 mph N/A   Scattered Clouds
1:53 PM 55.4 °F - 42.8 °F 63% 30.38 in 10.0 mi West 11.5 mph 19.6 mph N/A   Mostly Cloudy
2:13 PM 62.6 °F - 44.6 °F 52% 30.37 in 10.0 mi SW 16.1 mph 25.3 mph N/A   Scattered Clouds
2:27 PM 62.6 °F - 41.0 °F 45% 30.37 in 10.0 mi SW 16.1 mph 24.2 mph N/A   Clear
2:53 PM 62.6 °F - 42.8 °F 48% 30.36 in 10.0 mi SW 15.0 mph 26.5 mph N/A   Clear
3:12 PM 62.6 °F - 39.2 °F 42% 30.35 in 10.0 mi SW 13.8 mph 29.9 mph N/A   Clear
3:26 PM 64.4 °F - 39.2 °F 40% 30.36 in 10.0 mi SW 11.5 mph 23.0 mph N/A   Clear
4:13 PM 64.4 °F - 41.0 °F 42% 30.35 in 10.0 mi SW 6.9 mph 19.6 mph N/A   Clear
4:33 PM 62.6 °F - 39.2 °F 42% 30.34 in 10.0 mi SW 11.5 mph 24.2 mph N/A   Clear
4:51 PM 62.6 °F - 37.4 °F 39% 30.34 in 10.0 mi SW 10.4 mph 20.7 mph N/A   Clear
5:13 PM 64.4 °F - 39.2 °F 40% 30.33 in 10.0 mi SW 11.5 mph 20.7 mph N/A   Clear
5:31 PM 62.6 °F - 39.2 °F 42% 30.34 in 10.0 mi SW 9.2 mph 21.9 mph N/A   Clear
5:52 PM 60.8 °F - 41.0 °F 48% 30.33 in 10.0 mi SW 11.5 mph 20.7 mph N/A   Clear
6:08 PM 59.0 °F - 41.0 °F 51% 30.33 in 10.0 mi SW 9.2 mph 18.4 mph N/A Thunderstorm Thunderstorm
6:33 PM 59.0 °F - 41.0 °F 51% 30.34 in 10.0 mi SW 4.6 mph - N/A   Scattered Clouds
6:51 PM 57.2 °F - 42.8 °F 59% 30.35 in 10.0 mi East 9.2 mph - N/A   Scattered Clouds
7:11 PM 53.6 °F - 51.8 °F 94% 30.34 in 0.8 mi ENE 10.4 mph - N/A Thunderstorm Overcast
7:32 PM 53.6 °F - 51.8 °F 94% 30.33 in 0.5 mi East 11.5 mph 16.1 mph N/A Fog , Thunderstorm Unknown
7:53 PM 51.8 °F - 50.0 °F 94% 30.34 in 0.2 mi ENE 11.5 mph - N/A Fog , Thunderstorm Unknown
8:33 PM 50.0 °F - 48.2 °F 94% 30.33 in 0.2 mi East 11.5 mph 19.6 mph N/A Rain , Thunderstorm Heavy Thunderstorms and Rain
8:52 PM 50.0 °F - 46.4 °F 87% 30.34 in 0.2 mi ENE 15.0 mph 21.9 mph N/A Rain , Thunderstorm Light Thunderstorms and Rain
9:11 PM 46.4 °F 41.5 °F 46.4 °F 100% 30.36 in 0.2 mi ENE 10.4 mph 18.4 mph N/A Rain , Thunderstorm Light Thunderstorms and Rain
9:28 PM 46.4 °F 40.4 °F 44.6 °F 93% 30.37 in 0.5 mi NE 13.8 mph 20.7 mph N/A Rain , Thunderstorm Light Thunderstorms and Rain
9:51 PM 46.4 °F 42.9 °F 44.6 °F 93% 30.39 in 0.8 mi ESE 6.9 mph 19.6 mph N/A Rain , Thunderstorm Light Thunderstorms and Rain
10:12 PM 46.4 °F 42.4 °F 44.6 °F 93% 30.39 in 0.5 mi East 8.1 mph - N/A Fog , Thunderstorm Fog
10:24 PM 46.4 °F 40.7 °F 44.6 °F 93% 30.40 in 0.2 mi ENE 12.7 mph - N/A Fog Fog
10:51 PM 46.4 °F 40.7 °F 44.6 °F 93% 30.41 in 0.2 mi ENE 12.7 mph 18.4 mph N/A Fog Fog
11:13 PM 46.4 °F 41.1 °F 44.6 °F 93% 30.40 in 0.2 mi ENE 11.5 mph - N/A Fog Fog
11:29 PM 46.4 °F 40.7 °F 44.6 °F 93% 30.40 in 0.2 mi ENE 12.7 mph - N/A Fog , Thunderstorm Fog
11:46 PM 46.4 °F 40.7 °F 44.6 °F 93% 30.40 in 0.2 mi ENE 12.7 mph 19.6 mph N/A Fog Fog